Notices

Please take our survey and provide feedback: https://eccc.sondage-survey.ca/f/LanguageSelection.aspx?s=442ca660-fcf1-47c0-95a9-59707d6fd709

Please note that for the Engineering Climate Datasets, IDF dataset is available through this link.  Intensity-Duration-Frequency (IDF) Files: Includes the latest version of short-duration rainfall Intensity-Duration-Frequency (IDF) statistics in the form of tables and graphs with accompanying documentation for various locations across Canada.  Current IDF files can be accessed through our station finder application or downloaded for each province and territory across Canada.  In addition, historical versions of IDF files are also available for download.  Updates of IDF files are provided approximately every two years depending on the availability of data.   Thank you for your patience as we enhance our systems.

Hourly Data Report for November 05, 2020

MUSKOKA
ONTARIO
Current Station Operator: NAVCAN

44°58'29.000" N
79°18'12.000" W
281.90 m
6115529
71532
YQA

Download Data

Hourly Data (November 2020)
Hourly Data Report for November 5, 2020
TIME
LST
Temp Definition
°C
Dew Point Definition
°C
Rel Hum Definition
%
Precip. Amount Definition
mm

Wind Dir Definition
10's deg

Wind Spd Definition
km/h
Visibility Definition
km
Stn Press Definition
kPa
Hmdx Definition


Wind Chill Definition


Weather Definition


00:00 8.7 5.8 82 LegendMM 17 13 16.1 98.50     LegendNANA
01:00 9.8 5.9 77 LegendMM 18 15 16.1 98.47     LegendNANA
02:00 9.9 5.5 74 LegendMM 18 15 16.1 98.45     LegendNANA
03:00 9.5 5.3 75 LegendMM 18 15 16.1 98.43     LegendNANA
04:00 8.5 5.0 78 LegendMM 18 13 16.1 98.43     LegendNANA
05:00 8.1 4.9 80 LegendMM 17 13 16.1 98.44     LegendNANA
06:00 6.5 4.2 85 LegendMM 17 11 16.1 98.43     LegendNANA
07:00 6.8 4.6 86 LegendMM 17 11 16.1 98.44     LegendNANA
08:00 9.7 5.9 77 LegendMM 19 13 16.1 98.48     LegendNANA
09:00 11.9 6.1 67 LegendMM 20 15 16.1 98.49     LegendNANA
10:00 14.0 6.7 61 LegendMM 21 11 16.1 98.51     LegendNANA
11:00 15.5 6.3 54 254.0 22 13 LegendMM 98.52     LegendNANA
12:00 16.0 6.8 54 LegendMM 19 18 LegendMM 98.48     LegendNANA
13:00 16.6 6.7 52 LegendMM 21 11 LegendMM 98.45     LegendNANA
14:00 15.4 7.2 58 LegendMM 17 15 LegendMM 98.45     LegendNANA
15:00 15.2 7.6 60 LegendMM 16 11 LegendMM 98.46     LegendNANA
16:00 14.1 7.7 65 LegendMM 15 8 LegendMM 98.46     LegendNANA
17:00 12.2 7.8 74 LegendMM 14 5 LegendMM 98.51     LegendNANA
18:00 10.9 7.6 80 LegendMM 18 8 LegendMM 98.51     LegendNANA
19:00 11.4 7.9 79 LegendMM 18 9 LegendMM 98.54     LegendNANA
20:00 10.7 7.6 81 LegendMM 17 8 LegendMM 98.53     LegendNANA
21:00 9.7 7.2 84 LegendMM 18 5 LegendMM 98.56     LegendNANA
22:00 9.8 7.6 86 LegendMM 19 8 16.1 98.58     LegendNANA
23:00 9.1 7.4 89 LegendMM 16 5 16.1 98.53     LegendNANA

Notes on Data Quality.

Legend

  • E = Estimated
  • M = Missing
  • NA = Not Available*
  • [empty] = Indicates an unobserved value
Date modified: